BTK726 WARR-WATO

Flight info

Callsign BTK726
Flight time 1h 13m
Altitude 37000
Route ENTAS W43 MUBOT W42 NMA W69 HUMAI
Aircraft B738/M-SDE2E3FGHIRWXY/LB1

Departure

Time 2026-05-08 13:45
Airport Juanda International Airport (WARR)

Arrival

Time 2026-05-08 14:58
Airport Komodo Airport (WATO)
Time Latitude Longitude Altitude Speed Heading
2026-05-08 12:49 -7.37573 112.79409 17 ft 0 kts 10°
2026-05-08 13:32 -7.37575 112.79409 -11 ft 2 kts
2026-05-08 13:33 -7.37591 112.79407 17 ft 2 kts
2026-05-08 13:33 -7.37608 112.79406 18 ft 2 kts
2026-05-08 13:33 -7.37624 112.79403 20 ft 2 kts
2026-05-08 13:33 -7.37641 112.79400 18 ft 2 kts
2026-05-08 13:34 -7.37657 112.79400 20 ft 2 kts 348°
2026-05-08 13:34 -7.37671 112.79407 17 ft 2 kts 292°
2026-05-08 13:34 -7.37675 112.79423 21 ft 1 kts 281°
2026-05-08 13:34 -7.37676 112.79425 21 ft 0 kts 280°
2026-05-08 13:37 -7.37675 112.79421 17 ft 2 kts 280°
2026-05-08 13:38 -7.37670 112.79390 17 ft 6 kts 279°
2026-05-08 13:38 -7.37662 112.79344 17 ft 7 kts 279°
2026-05-08 13:38 -7.37655 112.79298 17 ft 7 kts 279°
2026-05-08 13:38 -7.37646 112.79245 19 ft 10 kts 279°
2026-05-08 13:39 -7.37632 112.79160 19 ft 15 kts 279°
2026-05-08 13:39 -7.37678 112.79091 17 ft 14 kts 190°
2026-05-08 13:39 -7.37779 112.79076 17 ft 15 kts 188°
2026-05-08 13:39 -7.37857 112.79030 17 ft 14 kts 258°
2026-05-08 13:40 -7.37844 112.78929 17 ft 15 kts 279°
2026-05-08 13:40 -7.37824 112.78812 17 ft 19 kts 279°
2026-05-08 13:40 -7.37802 112.78670 17 ft 21 kts 279°
2026-05-08 13:40 -7.37778 112.78525 18 ft 21 kts 279°
2026-05-08 13:41 -7.37757 112.78385 18 ft 20 kts 279°
2026-05-08 13:41 -7.37734 112.78248 19 ft 20 kts 279°
2026-05-08 13:41 -7.37713 112.78115 18 ft 19 kts 278°
2026-05-08 13:41 -7.37694 112.77986 19 ft 18 kts 279°
2026-05-08 13:42 -7.37674 112.77862 20 ft 18 kts 279°
2026-05-08 13:42 -7.37655 112.77742 19 ft 17 kts 279°
2026-05-08 13:42 -7.37636 112.77627 19 ft 16 kts 279°
2026-05-08 13:42 -7.37618 112.77515 21 ft 16 kts 279°
2026-05-08 13:43 -7.37616 112.77403 19 ft 17 kts 236°
2026-05-08 13:43 -7.37724 112.77368 18 ft 13 kts 189°
2026-05-08 13:43 -7.37771 112.77382 19 ft 1 kts 111°
2026-05-08 13:43 -7.37773 112.77388 19 ft 1 kts 103°
2026-05-08 13:44 -7.37774 112.77395 19 ft 2 kts 102°
2026-05-08 13:44 -7.37795 112.77524 19 ft 52 kts 99°
2026-05-08 13:44 -7.37894 112.78131 20 ft 121 kts 99°
2026-05-08 13:44 -7.38055 112.79121 207 ft 158 kts 100°
2026-05-08 13:45 -7.38239 112.80236 894 ft 161 kts 100°
2026-05-08 13:45 -7.38427 112.81403 1472 ft 182 kts 99°
2026-05-08 13:45 -7.38640 112.82762 1742 ft 210 kts 99°
2026-05-08 13:45 -7.38878 112.84263 2006 ft 229 kts 99°
2026-05-08 13:46 -7.39138 112.85878 2488 ft 237 kts 99°
2026-05-08 13:46 -7.39409 112.87556 2900 ft 252 kts 100°
2026-05-08 13:46 -7.39700 112.89345 3420 ft 264 kts 100°
2026-05-08 13:46 -7.39999 112.91180 4243 ft 267 kts 100°
2026-05-08 13:47 -7.40317 112.93038 5002 ft 272 kts 102°
2026-05-08 13:47 -7.40711 112.94921 5783 ft 276 kts 103°
2026-05-08 13:47 -7.41129 112.96818 6566 ft 279 kts 103°
2026-05-08 13:47 -7.41549 112.98706 7315 ft 281 kts 103°
2026-05-08 13:48 -7.41977 113.00637 8088 ft 283 kts 103°
2026-05-08 13:48 -7.42405 113.02584 8848 ft 286 kts 102°
2026-05-08 13:48 -7.42836 113.04549 9619 ft 289 kts 102°
2026-05-08 13:48 -7.43269 113.06537 10291 ft 294 kts 102°
2026-05-08 13:49 -7.43724 113.08626 10479 ft 317 kts 102°
2026-05-08 13:49 -7.44208 113.10854 10825 ft 332 kts 102°
2026-05-08 13:49 -7.44705 113.13143 11412 ft 337 kts 102°
2026-05-08 13:49 -7.45207 113.15461 12081 ft 340 kts 103°
2026-05-08 13:50 -7.45707 113.17770 12733 ft 344 kts 103°
2026-05-08 13:50 -7.46220 113.20140 13385 ft 348 kts 103°
2026-05-08 13:50 -7.46739 113.22540 14012 ft 352 kts 103°
2026-05-08 13:50 -7.47263 113.24960 14625 ft 355 kts 103°
2026-05-08 13:51 -7.47791 113.27405 15274 ft 358 kts 103°
2026-05-08 13:51 -7.48323 113.29865 15897 ft 361 kts 104°
2026-05-08 13:51 -7.48861 113.32353 16480 ft 366 kts 104°
2026-05-08 13:51 -7.49405 113.34869 17074 ft 369 kts 104°
2026-05-08 13:52 -7.49954 113.37410 17663 ft 373 kts 104°
2026-05-08 13:52 -7.50507 113.39974 18229 ft 376 kts 104°
2026-05-08 13:52 -7.51066 113.42562 18727 ft 379 kts 104°
2026-05-08 13:52 -7.51621 113.45136 19214 ft 383 kts 104°
2026-05-08 13:53 -7.52188 113.47767 19710 ft 386 kts 104°
2026-05-08 13:53 -7.52759 113.50417 20201 ft 389 kts 104°
2026-05-08 13:53 -7.53334 113.53092 20697 ft 392 kts 103°
2026-05-08 13:53 -7.53913 113.55784 21177 ft 395 kts 103°
2026-05-08 13:54 -7.54497 113.58500 21642 ft 398 kts 103°
2026-05-08 13:54 -7.55086 113.61240 22103 ft 402 kts 103°
2026-05-08 13:54 -7.55679 113.64001 22576 ft 405 kts 103°
2026-05-08 13:54 -7.56278 113.66792 23042 ft 408 kts 103°
2026-05-08 13:55 -7.56873 113.69561 23476 ft 412 kts 103°
2026-05-08 13:55 -7.57480 113.72391 23842 ft 415 kts 103°
2026-05-08 13:55 -7.58706 113.78109 24573 ft 420 kts 103°
2026-05-08 13:56 -7.59325 113.80993 24942 ft 422 kts 103°
2026-05-08 13:56 -7.59947 113.83895 25304 ft 425 kts 103°
2026-05-08 13:56 -7.60573 113.86815 25658 ft 427 kts 103°
2026-05-08 13:56 -7.61201 113.89749 26008 ft 430 kts 103°
2026-05-08 13:57 -7.61826 113.92665 26347 ft 432 kts 103°
2026-05-08 13:57 -7.62462 113.95632 26690 ft 435 kts 103°
2026-05-08 13:57 -7.63103 113.98622 27019 ft 437 kts 103°
2026-05-08 13:57 -7.63746 114.01627 27344 ft 440 kts 103°
2026-05-08 13:58 -7.64393 114.04647 27671 ft 442 kts 103°
2026-05-08 13:58 -7.65042 114.07685 27989 ft 445 kts 103°
2026-05-08 13:58 -7.65696 114.10743 28299 ft 447 kts 103°
2026-05-08 13:58 -7.66354 114.13818 28590 ft 450 kts 102°
2026-05-08 13:59 -7.67014 114.16907 28887 ft 452 kts 102°
2026-05-08 13:59 -7.67668 114.19973 29162 ft 455 kts 102°
2026-05-08 13:59 -7.68336 114.23097 29433 ft 457 kts 102°
2026-05-08 13:59 -7.69006 114.26239 29701 ft 460 kts 102°
2026-05-08 14:00 -7.69680 114.29399 29975 ft 462 kts 102°
2026-05-08 14:00 -7.70356 114.32568 30219 ft 464 kts 102°
2026-05-08 14:00 -7.71035 114.35751 30456 ft 465 kts 102°
2026-05-08 14:00 -7.71715 114.38942 30704 ft 466 kts 102°
2026-05-08 14:01 -7.72398 114.42144 30938 ft 468 kts 102°
2026-05-08 14:01 -7.73073 114.45311 31164 ft 469 kts 103°
2026-05-08 14:01 -7.73760 114.48533 31392 ft 471 kts 103°
2026-05-08 14:01 -7.74449 114.51767 31631 ft 472 kts 103°
2026-05-08 14:02 -7.75138 114.55005 31853 ft 473 kts 103°
2026-05-08 14:02 -7.75827 114.58245 32157 ft 472 kts 103°
2026-05-08 14:02 -7.76515 114.61479 32489 ft 471 kts 103°
2026-05-08 14:02 -7.77200 114.64701 32831 ft 469 kts 103°
2026-05-08 14:03 -7.77883 114.67919 33136 ft 469 kts 103°
2026-05-08 14:03 -7.78566 114.71131 33424 ft 469 kts 103°
2026-05-08 14:03 -7.79240 114.74306 33724 ft 469 kts 103°
2026-05-08 14:03 -7.79922 114.77517 34046 ft 468 kts 103°
2026-05-08 14:04 -7.80601 114.80721 34324 ft 467 kts 103°
2026-05-08 14:04 -7.81280 114.83922 34587 ft 467 kts 103°
2026-05-08 14:04 -7.81958 114.87118 34846 ft 466 kts 103°
2026-05-08 14:04 -7.82635 114.90314 35130 ft 465 kts 103°
2026-05-08 14:05 -7.83311 114.93505 35409 ft 465 kts 103°
2026-05-08 14:05 -7.83985 114.96686 35670 ft 464 kts 103°
2026-05-08 14:05 -7.84659 114.99871 35925 ft 464 kts 103°
2026-05-08 14:05 -7.85332 115.03052 36186 ft 463 kts 103°
2026-05-08 14:06 -7.85994 115.06184 36447 ft 463 kts 103°
2026-05-08 14:06 -7.86665 115.09355 36715 ft 462 kts 103°
2026-05-08 14:06 -7.87334 115.12520 36922 ft 462 kts 103°
2026-05-08 14:07 -7.88683 115.18905 36914 ft 467 kts 103°
2026-05-08 14:07 -7.90028 115.25279 36901 ft 461 kts 103°
2026-05-08 14:08 -7.91348 115.31542 36917 ft 459 kts 103°
2026-05-08 14:08 -7.92673 115.37827 36916 ft 458 kts 103°
2026-05-08 14:09 -7.93994 115.44102 36918 ft 457 kts 103°
2026-05-08 14:09 -7.95315 115.50380 36917 ft 458 kts 103°
2026-05-08 14:10 -7.96629 115.56629 36914 ft 459 kts 103°
2026-05-08 14:10 -7.97954 115.62935 36912 ft 460 kts 103°
2026-05-08 14:11 -7.99303 115.69253 36910 ft 461 kts 104°
2026-05-08 14:11 -8.00994 115.75500 36912 ft 462 kts 107°
2026-05-08 14:12 -8.02818 115.81718 36906 ft 463 kts 107°
2026-05-08 14:12 -8.04615 115.87919 36911 ft 464 kts 107°
2026-05-08 14:13 -8.06394 115.94176 36908 ft 464 kts 107°
2026-05-08 14:13 -8.08163 116.00443 36908 ft 464 kts 107°
2026-05-08 14:14 -8.09929 116.06712 36904 ft 464 kts 107°
2026-05-08 14:14 -8.11682 116.12932 36913 ft 464 kts 107°
2026-05-08 14:15 -8.13445 116.19189 36912 ft 463 kts 107°
2026-05-08 14:15 -8.15205 116.25440 36917 ft 463 kts 107°
2026-05-08 14:16 -8.16962 116.31684 36918 ft 462 kts 107°
2026-05-08 14:16 -8.18717 116.37925 36923 ft 462 kts 107°
2026-05-08 14:17 -8.20457 116.44115 36928 ft 462 kts 107°
2026-05-08 14:17 -8.22207 116.50348 36925 ft 461 kts 106°
2026-05-08 14:18 -8.23957 116.56582 36921 ft 461 kts 106°
2026-05-08 14:18 -8.25706 116.62816 36920 ft 461 kts 106°
2026-05-08 14:19 -8.27442 116.69009 36918 ft 462 kts 106°
2026-05-08 14:19 -8.29190 116.75249 36916 ft 462 kts 106°
2026-05-08 14:20 -8.30937 116.81490 36912 ft 462 kts 106°
2026-05-08 14:20 -8.32686 116.87741 36918 ft 463 kts 106°
2026-05-08 14:21 -8.34424 116.93957 36915 ft 463 kts 106°
2026-05-08 14:21 -8.36174 117.00218 36914 ft 464 kts 106°
2026-05-08 14:22 -8.37924 117.06485 36917 ft 464 kts 106°
2026-05-08 14:22 -8.39674 117.12756 36924 ft 464 kts 106°
2026-05-08 14:23 -8.41415 117.19002 36926 ft 465 kts 106°
2026-05-08 14:23 -8.43167 117.25290 36929 ft 466 kts 106°
2026-05-08 14:24 -8.44927 117.31609 36521 ft 471 kts 106°
2026-05-08 14:24 -8.45814 117.34796 36040 ft 470 kts 106°
2026-05-08 14:24 -8.46696 117.37964 35565 ft 467 kts 106°
2026-05-08 14:24 -8.47434 117.41148 35095 ft 466 kts 99°
2026-05-08 14:25 -8.47727 117.44413 34651 ft 467 kts 93°
2026-05-08 14:25 -8.47875 117.47651 34217 ft 468 kts 92°
2026-05-08 14:25 -8.47995 117.50939 33751 ft 469 kts 92°
2026-05-08 14:25 -8.48114 117.54235 33253 ft 470 kts 92°
2026-05-08 14:26 -8.48242 117.57538 32758 ft 471 kts 92°
2026-05-08 14:26 -8.48382 117.60845 32282 ft 472 kts 92°
2026-05-08 14:26 -8.48532 117.64162 31800 ft 473 kts 93°
2026-05-08 14:26 -8.48688 117.67482 31340 ft 474 kts 93°
2026-05-08 14:27 -8.48847 117.70815 30881 ft 476 kts 93°
2026-05-08 14:27 -8.49007 117.74156 30435 ft 477 kts 92°
2026-05-08 14:27 -8.49165 117.77467 29990 ft 479 kts 92°
2026-05-08 14:27 -8.49325 117.80821 29468 ft 476 kts 93°
2026-05-08 14:28 -8.49482 117.84140 28946 ft 470 kts 93°
2026-05-08 14:28 -8.49636 117.87417 28436 ft 464 kts 93°
2026-05-08 14:28 -8.49788 117.90658 27934 ft 459 kts 93°
2026-05-08 14:28 -8.49939 117.93859 27442 ft 454 kts 93°
2026-05-08 14:29 -8.50087 117.97024 26961 ft 449 kts 93°
2026-05-08 14:29 -8.50233 118.00158 26485 ft 445 kts 93°
2026-05-08 14:29 -8.50378 118.03263 26018 ft 440 kts 94°
2026-05-08 14:29 -8.50519 118.06299 25564 ft 436 kts 94°
2026-05-08 14:30 -8.50661 118.09343 25114 ft 433 kts 94°
2026-05-08 14:30 -8.50802 118.12368 24671 ft 429 kts 94°
2026-05-08 14:30 -8.50941 118.15364 24238 ft 426 kts 94°
2026-05-08 14:30 -8.51079 118.18340 23815 ft 423 kts 94°
2026-05-08 14:31 -8.51215 118.21295 23362 ft 420 kts 94°
2026-05-08 14:31 -8.51351 118.24236 22845 ft 418 kts 94°
2026-05-08 14:31 -8.51486 118.27157 22342 ft 415 kts 94°
2026-05-08 14:32 -8.51750 118.32902 21365 ft 409 kts 94°
2026-05-08 14:32 -8.51881 118.35767 20888 ft 407 kts 94°
2026-05-08 14:32 -8.52011 118.38610 20410 ft 404 kts 94°
2026-05-08 14:32 -8.52140 118.41432 19946 ft 401 kts 94°
2026-05-08 14:33 -8.52268 118.44236 19499 ft 398 kts 94°
2026-05-08 14:33 -8.52396 118.47025 19071 ft 396 kts 95°
2026-05-08 14:33 -8.52521 118.49780 18738 ft 390 kts 95°
2026-05-08 14:33 -8.52644 118.52500 18418 ft 384 kts 95°
2026-05-08 14:34 -8.52765 118.55175 18147 ft 378 kts 95°
2026-05-08 14:34 -8.52882 118.57768 17837 ft 371 kts 95°
2026-05-08 14:34 -8.53000 118.60350 17563 ft 365 kts 95°
2026-05-08 14:34 -8.53115 118.62887 17310 ft 358 kts 95°
2026-05-08 14:35 -8.53227 118.65382 17066 ft 352 kts 95°
2026-05-08 14:35 -8.53334 118.67834 16802 ft 347 kts 93°
2026-05-08 14:35 -8.53194 118.70249 16546 ft 343 kts 82°
2026-05-08 14:35 -8.52701 118.72588 16315 ft 338 kts 78°
2026-05-08 14:36 -8.52166 118.74849 16098 ft 332 kts 77°
2026-05-08 14:36 -8.51624 118.77093 15902 ft 326 kts 77°
2026-05-08 14:36 -8.51092 118.79305 15711 ft 322 kts 77°
2026-05-08 14:36 -8.50572 118.81487 15518 ft 319 kts 77°
2026-05-08 14:37 -8.50059 118.83658 15340 ft 317 kts 77°
2026-05-08 14:37 -8.49553 118.85817 15151 ft 315 kts 78°
2026-05-08 14:37 -8.49052 118.87964 14960 ft 313 kts 77°
2026-05-08 14:37 -8.48555 118.90099 14781 ft 312 kts 77°
2026-05-08 14:38 -8.48060 118.92228 14593 ft 310 kts 77°
2026-05-08 14:38 -8.47574 118.94317 14418 ft 309 kts 77°
2026-05-08 14:38 -8.47084 118.96426 14233 ft 308 kts 77°
2026-05-08 14:38 -8.46596 118.98526 14057 ft 307 kts 77°
2026-05-08 14:39 -8.46109 119.00620 13883 ft 306 kts 77°
2026-05-08 14:39 -8.45622 119.02714 13696 ft 306 kts 77°
2026-05-08 14:39 -8.45137 119.04802 13497 ft 305 kts 77°
2026-05-08 14:39 -8.44651 119.06889 13292 ft 305 kts 77°
2026-05-08 14:40 -8.44168 119.08969 13092 ft 304 kts 77°
2026-05-08 14:40 -8.43690 119.11019 12892 ft 303 kts 77°
2026-05-08 14:40 -8.43209 119.13089 12695 ft 303 kts 77°
2026-05-08 14:40 -8.42729 119.15152 12496 ft 302 kts 77°
2026-05-08 14:41 -8.42248 119.17215 12299 ft 301 kts 77°
2026-05-08 14:41 -8.41770 119.19268 12103 ft 300 kts 77°
2026-05-08 14:41 -8.41294 119.21314 11905 ft 299 kts 77°
2026-05-08 14:41 -8.40817 119.23357 11718 ft 298 kts 77°
2026-05-08 14:42 -8.40343 119.25391 11528 ft 297 kts 77°
2026-05-08 14:42 -8.39878 119.27390 11339 ft 296 kts 77°
2026-05-08 14:42 -8.39408 119.29404 11149 ft 294 kts 77°
2026-05-08 14:42 -8.38940 119.31411 10961 ft 293 kts 77°
2026-05-08 14:43 -8.38474 119.33409 10770 ft 291 kts 76°
2026-05-08 14:43 -8.38011 119.35394 10582 ft 290 kts 76°
2026-05-08 14:43 -8.37550 119.37370 10404 ft 288 kts 76°
2026-05-08 14:43 -8.37085 119.39333 10214 ft 287 kts 75°
2026-05-08 14:44 -8.36433 119.41227 10030 ft 285 kts 68°
2026-05-08 14:44 -8.35659 119.43064 9851 ft 283 kts 66°
2026-05-08 14:44 -8.34877 119.44856 9658 ft 282 kts 66°
2026-05-08 14:44 -8.34090 119.46667 9464 ft 281 kts 66°
2026-05-08 14:45 -8.33316 119.48467 9248 ft 279 kts 66°
2026-05-08 14:45 -8.32549 119.50268 9056 ft 278 kts 66°
2026-05-08 14:45 -8.31796 119.52050 8853 ft 273 kts 67°
2026-05-08 14:45 -8.31061 119.53797 8675 ft 267 kts 67°
2026-05-08 14:46 -8.30343 119.55507 8492 ft 262 kts 67°
2026-05-08 14:46 -8.29639 119.57187 8319 ft 257 kts 67°
2026-05-08 14:46 -8.28952 119.58831 8136 ft 252 kts 67°
2026-05-08 14:46 -8.28286 119.60423 7972 ft 247 kts 67°
2026-05-08 14:47 -8.27624 119.62007 7798 ft 243 kts 67°
2026-05-08 14:47 -8.26974 119.63564 7629 ft 239 kts 67°
2026-05-08 14:47 -8.26338 119.65086 7492 ft 232 kts 67°
2026-05-08 14:47 -8.25726 119.66551 7334 ft 221 kts 67°
2026-05-08 14:48 -8.25144 119.67944 7169 ft 210 kts 67°
2026-05-08 14:48 -8.24588 119.69274 6997 ft 204 kts 67°
2026-05-08 14:48 -8.24039 119.70589 6855 ft 204 kts 67°
2026-05-08 14:48 -8.23494 119.71894 6694 ft 205 kts 67°
2026-05-08 14:49 -8.22941 119.73217 6528 ft 204 kts 68°
2026-05-08 14:49 -8.22388 119.74540 6367 ft 204 kts 67°
2026-05-08 14:49 -8.21838 119.75856 6195 ft 201 kts 68°
2026-05-08 14:49 -8.21303 119.77135 6011 ft 195 kts 68°
2026-05-08 14:50 -8.20782 119.78381 5830 ft 190 kts 68°
2026-05-08 14:50 -8.20268 119.79611 5647 ft 190 kts 69°
2026-05-08 14:50 -8.20113 119.80919 5438 ft 191 kts 99°
2026-05-08 14:50 -8.20420 119.82201 5227 ft 192 kts 104°
2026-05-08 14:51 -8.20789 119.83508 5013 ft 195 kts 105°
2026-05-08 14:51 -8.21435 119.84675 4733 ft 194 kts 141°
2026-05-08 14:51 -8.22680 119.85111 4523 ft 189 kts 168°
2026-05-08 14:51 -8.23954 119.85326 4283 ft 183 kts 167°
2026-05-08 14:52 -8.25174 119.85549 4072 ft 174 kts 167°
2026-05-08 14:52 -8.27529 119.85991 3682 ft 165 kts 166°
2026-05-08 14:52 -8.28620 119.86197 3479 ft 154 kts 166°
2026-05-08 14:53 -8.29645 119.86389 3399 ft 151 kts 167°
2026-05-08 14:53 -8.30684 119.86535 3200 ft 150 kts 170°
2026-05-08 14:53 -8.31711 119.86670 3012 ft 148 kts 169°
2026-05-08 14:53 -8.32726 119.86804 2834 ft 147 kts 170°
2026-05-08 14:54 -8.33734 119.86938 2646 ft 145 kts 170°
2026-05-08 14:54 -8.34733 119.87071 2453 ft 144 kts 171°
2026-05-08 14:54 -8.35724 119.87202 2278 ft 143 kts 171°
2026-05-08 14:54 -8.36710 119.87334 2097 ft 142 kts 171°
2026-05-08 14:55 -8.37675 119.87463 1920 ft 142 kts 172°
2026-05-08 14:55 -8.38652 119.87593 1736 ft 142 kts 172°
2026-05-08 14:55 -8.39628 119.87723 1553 ft 140 kts 173°
2026-05-08 14:55 -8.40574 119.87849 1367 ft 134 kts 172°
2026-05-08 14:56 -8.41489 119.87971 1203 ft 133 kts 172°
2026-05-08 14:56 -8.42412 119.88094 1062 ft 134 kts 172°
2026-05-08 14:56 -8.43343 119.88218 975 ft 135 kts 172°
2026-05-08 14:56 -8.44279 119.88342 810 ft 135 kts 172°
2026-05-08 14:57 -8.45196 119.88466 616 ft 134 kts 173°
2026-05-08 14:57 -8.46118 119.88592 464 ft 134 kts 172°
2026-05-08 14:57 -8.47057 119.88718 300 ft 138 kts 173°
2026-05-08 14:57 -8.47952 119.88842 263 ft 117 kts 172°
2026-05-08 14:58 -8.48717 119.88946 208 ft 91 kts 172°
2026-05-08 14:58 -8.49005 119.88984 197 ft 25 kts 173°
2026-05-08 14:58 -8.49132 119.89002 192 ft 16 kts 171°
2026-05-08 14:58 -8.49207 119.89025 197 ft 4 kts 208°
2026-05-08 14:59 -8.49212 119.89019 192 ft 0 kts 239°
2026-05-08 14:59 -8.49171 119.89002 200 ft 7 kts 358°
2026-05-08 14:59 -8.49119 119.88999 197 ft 9 kts 356°
2026-05-08 15:00 -8.49051 119.88990 196 ft 11 kts 351°
2026-05-08 15:00 -8.48961 119.88977 205 ft 15 kts 353°
2026-05-08 15:00 -8.48854 119.88963 208 ft 11 kts 351°
2026-05-08 15:00 -8.48824 119.88903 200 ft 11 kts 262°
2026-05-08 15:01 -8.48832 119.88839 206 ft 4 kts 263°
2026-05-08 15:01 -8.48835 119.88816 203 ft 3 kts 263°
2026-05-08 15:01 -8.48837 119.88798 202 ft 0 kts 263°